Wind_Speed
6 5 2 1 2 9 8 5 6 6 8 7 4 8 9 14 19 26 28 27 24 16 14 10 10 13 17 18 20 21 22 22 22 23 23 26 27 26 26 23 21 19 12 22
4 5 5 4 3 6 2 3 4 5 2 1 13 28 25 23 27 28 29 28 28 25 23 19 15 12 11 15 21 23 24 22 24 23 25 25 26 27 27 27 22 19 26 16
7 5 7 2 1 3 4 4 3 4 2 4 13 23 21 26 29 28 28 29 29 29 29 27 22 18 12 11 14 15 19 20 21 24 24 26 30 31 29 30 20 26 25 22
4 4 3 4 7 12 12 6 8 1 6 13 24 28 30 29 30 29 30 30 29 27 26 26 24 21 19 15 13 11 13 17 20 21 23 25 28 30 31 33 24 20 21 21
5 4 2 3 6 1 4 4 8 5 15 24 25 31 26 25 26 26 28 28 29 26 26 24 23 22 17 14 13 10 11 14 16 18 22 23 25 26 27 26 25 27 23 21
3 7 7 3 3 9 3 4 9 10 9 3 2 9 3 19 22 24 25 26 26 26 25 25 24 21 18 17 14 10 10 11 13 16 18 19 20 23 24 20 19 15 25 20
3 4 1 1 13 3 4 6 4 12 14 16 13 14 16 19 20 21 22 22 22 24 25 24 23 23 21 17 16 17 14 12 14 16 17 16 15 16 18 18 15 17 19 19
2 5 3 17 4 5 9 19 17 19 21 25 22 18 18 19 20 18 18 18 20 20 22 23 25 24 22 20 20 21 19 17 16 17 18 15 13 12 11 10 9 7 13 18
2 4 4 13 19 23 26 26 23 22 17 18 17 18 14 20 19 15 17 18 19 22 22 22 21 22 21 20 21 22 23 22 19 18 19 20 16 16 15 8 8 5 10 15
4 4 8 20 29 28 26 25 21 19 16 15 15 14 16 12 11 19 24 24 24 24 25 23 21 19 18 19 21 20 21 24 24 20 16 19 20 20 21 16 16 6 13 21
5 8 19 21 20 20 20 18 16 14 13 14 15 15 15 18 22 24 25 26 25 26 25 24 24 21 19 18 20 20 18 16 18 19 16 14 16 20 15 16 26 26 23 29
4 7 17 12 15 14 14 15 13 11 10 11 12 15 17 19 22 23 25 26 25 23 24 24 24 25 22 19 18 19 20 16 14 16 14 14 14 19 23 24 23 27 32 37
11 24 25 19 16 13 12 11 10 12 13 14 15 14 15 15 16 17 18 19 19 19 19 20 21 22 21 20 20 17 18 19 17 16 18 17 18 21 25 25 30 34 34 40
25 20 18 14 12 13 14 13 14 16 14 15 14 15 16 17 18 18 18 18 18 18 17 18 20 22 20 18 19 21 20 18 20 20 20 21 23 23 26 31 32 27 27 34
17 18 21 19 18 18 17 17 20 20 17 20 20 19 19 21 20 18 19 19 19 19 15 17 20 23 21 19 19 21 22 21 21 22 24 23 26 27 25 26 28 30 31 29
23 23 21 21 20 19 19 21 22 22 22 21 21 23 23 21 20 19 19 17 20 22 22 19 18 20 23 23 21 21 22 22 20 20 20 21 23 28 26 22 24 28 32 29
26 21 19 20 18 19 21 20 20 19 19 21 21 22 22 22 23 23 23 21 18 16 16 21 24 22 21 20 21 22 22 23 23 24 21 20 21 23 26 26 25 25 23 20
18 17 16 16 17 17 18 18 18 19 21 21 22 20 23 25 25 25 22 20 18 18 20 23 24 22 20 19 20 22 22 23 23 26 28 26 23 22 22 24 24 25 24 20
17 18 17 17 17 17 17 18 19 19 19 21 23 24 21 23 23 24 25 24 25 26 26 25 25 24 21 19 19 21 23 24 23 24 23 26 27 23 21 20 21 23 23 22
16 14 13 14 14 15 17 18 18 19 19 20 20 23 25 24 23 25 27 28 26 26 26 24 24 23 21 21 23 24 23 24 23 23 24 23 22 25 24 23 22 21 20 20
13 12 10 10 11 12 14 16 18 21 23 24 24 22 21 21 23 25 28 30 30 28 27 27 28 28 26 22 23 22 25 24 24 25 25 25 25 26 28 27 25 23 21 19
10 9 9 7 7 9 11 14 16 18 20 23 24 24 24 24 24 23 22 25 28 29 30 31 31 30 26 23 21 19 20 23 19 18 22 25 26 25 26 27 26 26 25 25
9 8 7 5 4 5 6 9 11 13 15 18 20 21 23 26 29 31 31 28 26 25 25 27 29 31 29 27 26 24 22 20 21 18 15 16 17 19 21 21 21 22 24 25
7 7 7 7 4 2 3 3 4 8 11 13 15 17 19 20 21 22 23 26 27 28 28 27 26 26 28 31 31 31 30 28 25 21 19 18 17 17 16 19 20 19 20 22
4 6 7 5 3 2 4 1 5 8 10 11 13 14 15 17 19 21 22 22 23 26 28 28 28 29 28 26 27 29 32 32 33 32 26 21 18 17 18 17 16 18 16 15
5 5 6 5 4 2 1 2 6 9 12 14 13 13 15 15 16 16 19 21 21 20 23 26 28 29 30 30 29 28 28 29 32 32 33 33 29 21 19 18 19 20 18 22
7 5 4 4 3 3 5 6 10 12 11 13 14 12 13 14 14 14 18 19 21 18 18 19 21 24 26 28 30 31 31 30 29 29 31 33 33 32 30 26 22 19 17 17
Wind_Direction
220 213 214 121 159 168 187 176 160 230 204 253 68 114 60 66 54 51 48 51 54 50 37 9 312 290 285 287 281 274 272 271 272 264 261 261 262 264 261 257 244 239 272 260
222 195 179 96 6 131 68 84 294 147 244 77 88 90 70 65 60 50 46 49 50 51 46 41 30 3 311 282 279 283 278 279 280 276 267 265 264 260 260 260 258 259 257 258
240 143 123 24 220 141 122 80 289 166 119 136 87 76 64 63 61 53 49 48 47 45 40 36 28 16 351 311 289 287 291 291 292 287 284 280 274 269 264 264 269 300 264 266
137 72 161 291 101 112 100 45 1 254 148 115 105 90 75 63 61 55 51 50 48 44 41 41 34 27 28 39 42 18 347 325 318 311 303 299 293 284 275 270 270 262 255 256
129 88 102 295 264 108 131 9 7 61 126 130 112 81 55 64 66 62 55 52 49 44 39 35 34 29 26 36 33 23 358 337 327 316 305 305 306 308 298 287 288 349 285 266
126 124 190 226 100 1 124 32 12 82 46 326 122 74 341 67 67 64 60 53 46 39 36 32 30 24 14 20 14 11 354 344 336 331 325 317 318 313 305 290 283 4 280 280
120 111 284 25 308 328 117 177 78 80 94 93 86 95 86 72 65 62 54 48 42 36 36 32 24 18 15 3 351 346 330 312 310 307 314 316 318 318 316 304 278 291 295 283
93 99 185 348 334 170 139 118 107 91 91 92 94 89 78 63 36 31 40 38 34 27 22 18 9 5 4 1 357 348 340 318 301 299 303 305 312 300 298 297 293 306 303 298
85 137 9 48 81 110 113 103 95 99 92 90 77 62 47 49 357 358 17 15 12 7 0 359 356 354 350 349 345 341 338 338 330 300 291 289 289 279 266 230 200 209 289 282
93 342 44 64 92 93 94 91 87 78 69 63 59 45 37 24 345 357 1 356 349 340 338 337 335 334 333 329 328 333 336 335 333 332 314 300 298 292 282 231 202 242 268 274
73 135 87 65 78 88 87 83 73 60 40 31 19 15 6 353 350 348 341 340 337 333 325 320 315 313 313 316 312 314 321 328 329 330 334 318 303 299 288 248 252 275 272 249
181 96 107 82 79 74 72 59 48 35 21 17 360 353 344 346 344 340 337 334 330 326 322 319 312 305 298 296 299 299 300 305 306 306 310 309 292 272 269 261 263 270 293 263
113 114 106 97 77 62 62 54 52 32 15 7 3 357 354 357 354 349 345 342 341 342 340 333 327 320 309 290 279 279 281 284 285 290 291 288 290 289 285 273 272 273 272 263
117 119 84 83 76 67 63 61 58 54 43 33 22 14 3 0 354 350 347 342 334 331 336 336 332 329 326 304 286 273 269 266 272 277 282 279 280 286 294 289 284 270 271 277
109 110 105 100 92 79 71 63 56 50 37 35 24 19 11 5 357 346 335 336 332 326 330 333 331 334 334 319 303 290 274 271 268 274 274 279 276 280 286 295 283 278 292 297
109 106 105 94 88 79 68 60 55 46 37 30 22 21 20 14 8 1 357 343 336 331 327 327 316 322 328 326 314 303 288 272 272 278 280 277 280 279 281 290 298 285 288 285
118 110 102 89 77 69 64 59 52 44 36 27 20 18 17 14 10 8 6 1 354 348 342 321 312 303 313 319 317 311 303 292 274 278 280 285 292 290 288 289 291 297 303 294
108 101 92 83 80 75 66 56 46 37 31 24 18 15 22 20 9 1 359 359 353 346 341 338 335 323 311 307 309 308 300 302 289 281 278 281 290 302 299 297 295 292 295 301
120 114 105 93 82 72 61 48 37 29 26 23 21 23 25 22 13 6 10 9 5 356 350 343 339 333 325 319 323 310 306 300 299 286 290 281 276 287 302 304 304 301 299 300
128 115 108 95 81 62 54 49 43 39 33 27 28 29 33 36 26 22 21 19 10 1 351 352 349 344 333 327 328 322 323 309 297 293 290 291 289 282 291 294 299 303 305 301
145 139 124 106 90 72 64 60 53 48 41 37 34 31 25 28 31 27 25 22 17 13 9 6 3 352 343 336 332 326 326 319 307 293 291 292 294 293 292 292 291 291 294 302
160 160 149 129 104 85 78 65 50 43 41 39 40 38 35 32 28 30 25 18 18 18 21 18 11 0 350 340 332 322 327 335 313 302 299 296 295 294 295 295 289 284 286 289
163 177 171 154 135 108 87 61 46 37 33 31 31 35 38 36 33 29 27 23 16 9 9 16 18 15 12 11 6 358 349 338 336 336 317 309 308 304 301 299 301 295 287 285
161 180 170 176 163 124 79 56 17 9 11 13 16 13 10 15 22 25 24 24 23 21 20 18 14 15 18 22 22 20 16 9 359 343 329 324 319 303 297 298 314 307 303 293
160 155 177 186 175 142 145 35 337 334 329 334 351 357 0 358 358 3 6 8 13 17 19 19 19 19 14 14 16 18 21 21 21 16 3 347 332 317 305 306 298 293 301 300
138 144 152 150 156 167 179 327 325 329 326 329 328 340 348 344 348 352 355 356 356 359 7 13 18 20 22 21 20 18 18 16 17 18 22 20 13 358 340 316 306 300 302 289
141 132 171 184 207 253 276 291 310 326 325 331 338 336 327 343 338 340 341 347 354 357 359 3 7 12 17 18 18 17 17 14 14 15 15 16 19 22 26 28 21 6 338 313
Height
1503 1501 1499 1499 1500 1512 1515 1516 1522 1516 1520 1505 1508 1507 1511 1512 1510 1507 1506 1503 1503 1505 1506 1507 1507 1508 1510 1510 1511 1513 1514 1514 1515 1517 1518 1520 1521 1521 1522 1524 1527 1531 1533 1524
1500 1500 1502 1508 1506 1504 1509 1513 1512 1513 1514 1508 1511 1507 1512 1513 1512 1512 1511 1509 1509 1508 1508 1508 1507 1507 1507 1507 1508 1509 1511 1512 1513 1513 1514 1514 1516 1516 1519 1521 1522 1520 1530 1529
1512 1502 1504 1516 1509 1512 1516 1518 1518 1515 1514 1511 1512 1510 1516 1516 1515 1516 1515 1513 1511 1510 1510 1507 1507 1506 1504 1502 1503 1505 1507 1508 1509 1509 1509 1509 1510 1510 1513 1512 1515 1518 1521 1522
1518 1507 1528 1512 1504 1504 1511 1514 1512 1508 1510 1513 1510 1513 1517 1519 1518 1519 1519 1515 1513 1512 1512 1510 1510 1507 1504 1502 1501 1502 1503 1505 1506 1506 1506 1505 1504 1504 1506 1505 1507 1509 1514 1515
1519 1537 1520 1513 1506 1504 1507 1520 1514 1513 1513 1513 1511 1510 1519 1522 1521 1522 1521 1519 1517 1516 1514 1510 1508 1508 1506 1504 1503 1502 1503 1503 1502 1502 1501 1501 1500 1501 1500 1504 1505 1495 1510 1514
1517 1522 1534 1509 1503 1504 1504 1530 1518 1516 1517 1515 1509 1521 1527 1524 1523 1522 1521 1520 1519 1516 1512 1513 1510 1509 1507 1504 1504 1503 1503 1502 1500 1500 1499 1498 1498 1497 1496 1500 1499 1493 1499 1507
1511 1518 1515 1509 1505 1503 1518 1530 1520 1517 1517 1516 1517 1525 1529 1528 1526 1522 1520 1519 1519 1518 1515 1516 1513 1509 1506 1506 1504 1504 1503 1501 1500 1498 1496 1495 1494 1494 1493 1495 1498 1502 1502 1503
1512 1516 1518 1508 1503 1506 1513 1516 1518 1520 1521 1519 1522 1525 1526 1524 1530 1530 1522 1518 1518 1518 1517 1513 1508 1508 1510 1508 1506 1503 1500 1498 1496 1494 1492 1490 1489 1489 1489 1488 1490 1494 1496 1498
1513 1521 1516 1511 1508 1509 1513 1515 1519 1521 1525 1523 1526 1524 1526 1503 1531 1536 1524 1517 1514 1513 1512 1509 1509 1511 1511 1508 1504 1502 1499 1495 1492 1489 1487 1485 1485 1484 1483 1483 1483 1483 1491 1491
1507 1521 1518 1516 1514 1514 1516 1518 1520 1521 1524 1524 1526 1524 1522 1528 1536 1523 1514 1511 1509 1510 1509 1510 1510 1511 1509 1506 1503 1500 1497 1493 1489 1486 1484 1482 1482 1480 1480 1479 1474 1471 1479 1480
1516 1519 1518 1520 1520 1521 1522 1522 1522 1522 1522 1521 1522 1521 1521 1521 1516 1511 1513 1510 1508 1506 1508 1508 1507 1507 1506 1503 1500 1497 1495 1492 1488 1484 1482 1480 1478 1475 1474 1473 1471 1468 1464 1464
1515 1514 1517 1525 1524 1524 1522 1523 1523 1524 1525 1523 1523 1522 1521 1517 1514 1511 1510 1508 1507 1507 1505 1503 1501 1499 1499 1498 1496 1493 1490 1489 1486 1482 1480 1478 1475 1473 1471 1469 1467 1465 1465 1464
1511 1518 1521 1523 1524 1525 1524 1526 1524 1524 1525 1523 1521 1522 1520 1517 1515 1513 1511 1509 1507 1504 1502 1499 1496 1493 1492 1490 1488 1486 1484 1483 1481 1479 1477 1474 1471 1468 1465 1464 1462 1459 1459 1459
1516 1520 1523 1524 1527 1527 1526 1526 1525 1521 1527 1526 1526 1522 1520 1514 1511 1510 1508 1507 1505 1503 1501 1497 1493 1489 1486 1483 1480 1478 1477 1476 1475 1473 1471 1469 1466 1463 1461 1457 1452 1451 1452 1450
1519 1520 1523 1527 1529 1530 1530 1528 1524 1527 1529 1523 1524 1520 1515 1509 1508 1509 1509 1507 1504 1501 1498 1495 1492 1488 1484 1479 1476 1472 1470 1469 1468 1466 1464 1463 1460 1457 1455 1451 1448 1445 1444 1445
1523 1524 1527 1528 1530 1532 1531 1529 1529 1528 1526 1525 1523 1517 1513 1511 1509 1508 1506 1503 1500 1496 1494 1492 1488 1485 1481 1476 1472 1468 1465 1463 1462 1460 1458 1456 1455 1452 1450 1448 1444 1442 1439 1440
1525 1528 1529 1529 1530 1530 1530 1531 1531 1531 1529 1527 1522 1517 1513 1511 1509 1507 1504 1502 1499 1496 1493 1488 1483 1480 1476 1473 1469 1465 1460 1457 1456 1454 1453 1452 1450 1448 1445 1443 1441 1439 1437 1436
1527 1529 1530 1531 1532 1533 1534 1533 1533 1531 1528 1525 1522 1518 1515 1512 1510 1506 1503 1500 1497 1493 1489 1485 1479 1474 1471 1468 1464 1460 1456 1452 1450 1448 1447 1446 1444 1443 1442 1439 1437 1436 1434 1434
1529 1530 1533 1534 1534 1534 1534 1533 1532 1531 1528 1525 1522 1518 1516 1514 1512 1508 1503 1499 1494 1489 1485 1480 1475 1470 1466 1462 1459 1455 1452 1448 1445 1443 1441 1439 1438 1437 1436 1435 1433 1431 1429 1428
1530 1531 1535 1536 1536 1535 1535 1534 1533 1532 1529 1527 1524 1520 1517 1515 1512 1508 1503 1499 1494 1489 1483 1477 1472 1467 1462 1458 1455 1451 1447 1443 1440 1437 1435 1434 1432 1430 1430 1429 1429 1427 1425 1424
1531 1534 1536 1536 1536 1537 1537 1537 1536 1533 1531 1527 1524 1520 1518 1516 1512 1507 1502 1498 1494 1488 1482 1476 1470 1464 1459 1455 1451 1447 1443 1438 1435 1433 1430 1428 1426 1424 1422 1422 1422 1421 1420 1418
1532 1533 1535 1536 1537 1537 1537 1536 1536 1535 1533 1530 1527 1524 1520 1516 1513 1509 1505 1501 1495 1489 1483 1477 1471 1466 1459 1453 1449 1444 1440 1436 1430 1428 1426 1423 1420 1418 1416 1415 1414 1413 1413 1412
1532 1533 1534 1536 1536 1538 1537 1536 1537 1536 1534 1532 1529 1526 1522 1518 1514 1509 1505 1501 1496 1492 1486 1480 1475 1468 1461 1454 1448 1443 1438 1434 1429 1424 1422 1419 1416 1414 1412 1410 1408 1406 1404 1404
1532 1533 1534 1535 1536 1537 1536 1536 1536 1536 1534 1532 1530 1526 1523 1520 1517 1514 1510 1506 1500 1494 1488 1482 1476 1470 1464 1457 1452 1445 1439 1434 1428 1423 1419 1415 1411 1409 1407 1406 1403 1401 1400 1398
1532 1533 1534 1535 1535 1536 1536 1536 1536 1535 1534 1532 1529 1527 1524 1521 1517 1513 1509 1506 1501 1496 1491 1485 1479 1472 1466 1460 1454 1449 1443 1437 1430 1425 1418 1413 1409 1405 1403 1400 1398 1397 1395 1393
1531 1532 1533 1534 1535 1535 1535 1535 1534 1534 1532 1530 1528 1526 1523 1520 1517 1513 1510 1505 1501 1496 1492 1486 1481 1475 1469 1463 1457 1452 1446 1440 1434 1428 1422 1415 1409 1403 1399 1395 1393 1391 1388 1387
1531 1532 1533 1533 1534 1534 1534 1534 1533 1531 1530 1528 1525 1523 1521 1518 1515 1512 1508 1504 1500 1495 1491 1487 1482 1477 1472 1467 1461 1455 1449 1443 1437 1431 1426 1420 1414 1408 1402 1396 1392 1388 1384 1381